TimeEST,TemperatureF,Dew PointF,Humidity,Sea Level PressureIn,VisibilityMPH,Wind Direction,Wind SpeedMPH,Gust SpeedMPH,PrecipitationIn,Events,Conditions,WindDirDegrees,DateUTC
12:15 AM,22.6,12.6,65,30.40,10.0,Calm,Calm,-,N/A,,Clear,0,2013-11-14 05:15:00
12:35 AM,23.0,12.2,63,30.40,10.0,Calm,Calm,-,N/A,,Clear,0,2013-11-14 05:35:00
12:55 AM,23.5,12.4,62,30.39,10.0,SSE,3.5,-,N/A,,Clear,160,2013-11-14 05:55:00
1:15 AM,21.7,12.4,67,30.38,10.0,Calm,Calm,-,N/A,,Clear,0,2013-11-14 06:15:00
1:35 AM,22.1,12.9,68,30.38,10.0,Calm,Calm,-,N/A,,Clear,0,2013-11-14 06:35:00
1:55 AM,23.5,12.6,63,30.37,10.0,SSE,3.5,-,N/A,,Clear,160,2013-11-14 06:55:00
2:15 AM,23.7,12.2,61,30.37,10.0,Calm,Calm,-,N/A,,Clear,0,2013-11-14 07:15:00
2:35 AM,24.8,12.2,59,30.36,10.0,Calm,Calm,-,N/A,,Clear,0,2013-11-14 07:35:00
2:55 AM,24.3,11.7,59,30.36,10.0,Calm,Calm,-,N/A,,Clear,0,2013-11-14 07:55:00
3:15 AM,23.5,12.4,62,30.36,10.0,Calm,Calm,-,N/A,,Clear,0,2013-11-14 08:15:00
3:35 AM,20.3,12.2,71,30.35,10.0,Calm,Calm,-,N/A,,Clear,0,2013-11-14 08:35:00
3:55 AM,19.9,12.7,74,30.35,10.0,Calm,Calm,-,N/A,,Clear,0,2013-11-14 08:55:00
4:15 AM,19.6,13.1,76,30.35,10.0,Calm,Calm,-,N/A,,Clear,0,2013-11-14 09:15:00
4:35 AM,19.4,12.6,75,30.35,10.0,Calm,Calm,-,N/A,,Clear,0,2013-11-14 09:35:00
4:55 AM,19.0,12.9,77,30.35,10.0,Calm,Calm,-,N/A,,Clear,0,2013-11-14 09:55:00
5:15 AM,17.2,12.2,81,30.35,10.0,Calm,Calm,-,N/A,,Clear,0,2013-11-14 10:15:00
5:35 AM,18.5,12.9,79,30.35,10.0,Calm,Calm,-,N/A,,Clear,0,2013-11-14 10:35:00
5:55 AM,19.6,13.1,76,30.35,10.0,Calm,Calm,-,N/A,,Clear,0,2013-11-14 10:55:00
6:15 AM,19.0,13.1,78,30.35,10.0,Calm,Calm,-,N/A,,Clear,0,2013-11-14 11:15:00
6:35 AM,18.5,12.6,78,30.35,10.0,Calm,Calm,-,N/A,,Clear,0,2013-11-14 11:35:00
6:55 AM,18.9,12.7,77,30.36,10.0,Calm,Calm,-,N/A,,Clear,0,2013-11-14 11:55:00
7:15 AM,18.1,12.9,80,30.36,10.0,Calm,Calm,-,N/A,,Clear,0,2013-11-14 12:15:00
7:35 AM,20.7,14.2,76,30.36,10.0,Calm,Calm,-,N/A,,Clear,0,2013-11-14 12:35:00
7:55 AM,23.9,18.0,78,30.36,10.0,Calm,Calm,-,N/A,,Clear,0,2013-11-14 12:55:00
8:15 AM,28.8,19.2,68,30.36,10.0,Calm,Calm,-,N/A,,Clear,0,2013-11-14 13:15:00
8:35 AM,33.3,20.5,59,30.37,10.0,Calm,Calm,-,N/A,,Clear,0,2013-11-14 13:35:00
8:55 AM,37.2,16.5,43,30.37,10.0,Calm,Calm,-,N/A,,Clear,0,2013-11-14 13:55:00
9:15 AM,40.8,13.8,33,30.37,10.0,SSW,4.6,-,N/A,,Clear,210,2013-11-14 14:15:00
9:35 AM,43.3,13.1,29,30.36,10.0,South,5.8,-,N/A,,Clear,190,2013-11-14 14:35:00
9:55 AM,45.9,11.1,25,30.36,10.0,SW,8.1,-,N/A,,Clear,220,2013-11-14 14:55:00
10:15 AM,47.7,9.3,21,30.36,10.0,SSW,6.9,-,N/A,,Clear,210,2013-11-14 15:15:00
10:35 AM,49.3,9.3,20,30.35,10.0,SSW,6.9,-,N/A,,Clear,200,2013-11-14 15:35:00
10:55 AM,50.5,8.2,18,30.35,10.0,SW,5.8,-,N/A,,Clear,230,2013-11-14 15:55:00
11:15 AM,52.2,9.9,18,30.34,10.0,SSW,9.2,-,N/A,,Clear,210,2013-11-14 16:15:00
11:35 AM,52.3,7.3,16,30.32,10.0,SW,8.1,-,N/A,,Clear,230,2013-11-14 16:35:00
11:55 AM,53.4,7.7,16,30.31,10.0,SW,5.8,-,N/A,,Clear,220,2013-11-14 16:55:00
12:15 PM,54.5,7.9,15,30.30,10.0,South,5.8,-,N/A,,Clear,180,2013-11-14 17:15:00
12:35 PM,55.8,8.4,15,30.29,10.0,South,8.1,-,N/A,,Clear,190,2013-11-14 17:35:00
12:55 PM,56.1,9.5,16,30.28,10.0,South,6.9,-,N/A,,Clear,170,2013-11-14 17:55:00
1:15 PM,56.5,9.1,15,30.28,10.0,SSE,6.9,-,N/A,,Clear,160,2013-11-14 18:15:00
1:35 PM,57.2,9.0,15,30.27,10.0,South,8.1,-,N/A,,Clear,170,2013-11-14 18:35:00
1:55 PM,57.6,10.0,15,30.26,10.0,SSE,10.4,-,N/A,,Clear,160,2013-11-14 18:55:00
2:15 PM,57.6,9.9,15,30.25,10.0,SSE,10.4,-,N/A,,Clear,160,2013-11-14 19:15:00
2:35 PM,58.1,10.6,15,30.25,10.0,SSE,10.4,-,N/A,,Clear,160,2013-11-14 19:35:00
2:55 PM,58.3,10.6,15,30.25,10.0,South,12.7,-,N/A,,Clear,180,2013-11-14 19:55:00
3:15 PM,58.1,10.4,15,30.25,10.0,South,9.2,-,N/A,,Clear,190,2013-11-14 20:15:00
3:35 PM,57.6,10.6,16,30.25,10.0,South,10.4,16.1,N/A,,Clear,190,2013-11-14 20:35:00
3:55 PM,57.2,10.4,16,30.25,10.0,SSW,6.9,-,N/A,,Clear,200,2013-11-14 20:55:00
4:15 PM,56.3,10.4,16,30.25,10.0,South,11.5,-,N/A,,Clear,190,2013-11-14 21:15:00
4:35 PM,54.7,12.7,19,30.25,10.0,South,8.1,-,N/A,,Clear,190,2013-11-14 21:35:00
4:55 PM,53.4,12.2,19,30.25,10.0,SSW,6.9,-,N/A,,Clear,200,2013-11-14 21:55:00
5:15 PM,52.2,11.8,20,30.25,10.0,South,6.9,-,N/A,,Clear,190,2013-11-14 22:15:00
5:35 PM,52.0,11.3,20,30.26,10.0,South,8.1,-,N/A,,Clear,190,2013-11-14 22:35:00
5:55 PM,50.4,11.5,21,30.25,10.0,SSW,6.9,-,N/A,,Clear,200,2013-11-14 22:55:00
6:15 PM,47.5,12.4,24,30.25,10.0,SSW,3.5,-,N/A,,Clear,210,2013-11-14 23:15:00
6:35 PM,46.2,12.9,26,30.26,10.0,Calm,Calm,-,N/A,,Clear,0,2013-11-14 23:35:00
6:55 PM,45.5,12.9,27,30.26,10.0,Calm,Calm,-,N/A,,Clear,0,2013-11-14 23:55:00
7:15 PM,42.1,13.8,32,30.25,10.0,South,3.5,-,N/A,,Clear,180,2013-11-15 00:15:00
7:35 PM,41.9,13.8,32,30.26,10.0,Calm,Calm,-,N/A,,Clear,0,2013-11-15 00:35:00
7:55 PM,42.4,13.8,31,30.26,10.0,SSW,4.6,-,N/A,,Clear,210,2013-11-15 00:55:00
8:15 PM,41.0,14.0,33,30.25,10.0,SSW,4.6,-,N/A,,Clear,210,2013-11-15 01:15:00
8:35 PM,39.9,14.0,35,30.26,10.0,WSW,3.5,-,N/A,,Clear,250,2013-11-15 01:35:00
8:55 PM,40.8,14.0,34,30.26,10.0,SW,4.6,-,N/A,,Clear,230,2013-11-15 01:55:00
9:15 PM,38.5,14.9,38,30.26,10.0,Calm,Calm,-,N/A,,Clear,0,2013-11-15 02:15:00
9:35 PM,38.5,14.7,38,30.26,10.0,SSW,3.5,-,N/A,,Clear,210,2013-11-15 02:35:00
9:55 PM,38.5,14.2,37,30.26,10.0,Calm,Calm,-,N/A,,Clear,0,2013-11-15 02:55:00
10:15 PM,32.7,16.9,52,30.26,10.0,Calm,Calm,-,N/A,,Clear,0,2013-11-15 03:15:00
10:35 PM,32.9,16.9,52,30.26,10.0,Calm,Calm,-,N/A,,Clear,0,2013-11-15 03:35:00
10:55 PM,32.2,17.2,54,30.26,10.0,Calm,Calm,-,N/A,,Clear,0,2013-11-15 03:55:00
11:15 PM,29.1,17.6,62,30.25,10.0,Calm,Calm,-,N/A,,Clear,0,2013-11-15 04:15:00
11:35 PM,31.8,16.5,53,30.25,10.0,South,3.5,-,N/A,,Clear,190,2013-11-15 04:35:00
11:55 PM,32.9,16.0,50,30.25,10.0,SSW,4.6,-,N/A,,Clear,200,2013-11-15 04:55:00